Location: Home AU
(51.1382°N, 13.5726°E)
Time: 09:50:33
(UTC+01:00)

ISS - Pass Details

Date: 09 January 2018
Orbit: 401 x 406 km, 51.6° (Epoch: 17 January)

Event Time Altitude Azimuth Distance (km) Brightness Sun altitude
Exits shadow 05:50:18 78° 111° (ESE) 419 -3.8 -20.5°
Drops below altitude 10° 05:53:24 10° 102° (ESE) 1,465 0.2 -20.0°
Sets 05:55:29 0° 102° (ESE) 2,326 1.7 -19.7°
